| time (UTC) | temp C | wind direction | speed KPH | gust KPH | rain 1hr cm | rain 24hr cm | rain mn cm | humidity % | barometer mb |
| 20260905010622 | 23 | 129 | 0.0 | 0.0 | 0.00 | 0.53 | 0.53 | 88 | 1013.3 |
| 20260905005753 | 23 | 129 | 0.0 | 0.0 | 0.00 | 0.53 | 0.53 | 88 | 1013.0 |
| 20260905005722 | 23 | 129 | 0.0 | 0.0 | 0.00 | 0.53 | 0.53 | 88 | 1013.0 |
| 20260905004822 | 23 | 129 | 0.0 | 0.0 | 0.00 | 0.53 | 0.53 | 87 | 1012.9 |
| 20260905004238 | 24 | 129 | 0.0 | 0.0 | 0.00 | 0.53 | 0.53 | 87 | 1012.8 |
| 20260905003921 | 24 | 129 | 0.0 | 0.0 | 0.00 | 0.53 | 0.53 | 87 | 1012.8 |
| 20260905003024 | 24 | 129 | 0.0 | 0.0 | 0.00 | 0.53 | 0.53 | 86 | 1012.8 |
| 20260905002124 | 25 | 129 | 0.0 | 0.0 | 0.00 | 0.53 | 0.53 | 85 | 1012.7 |
| 20260905001345 | 25 | 129 | 0.0 | 0.0 | 0.00 | 0.53 | 0.53 | 85 | 1012.7 |
| 20260905001255 | 25 | 129 | 0.0 | 0.0 | 0.00 | 0.53 | 0.53 | 85 | 1012.7 |
| 20260905001222 | 25 | 129 | 0.0 | 0.0 | 0.00 | 0.53 | 0.53 | 85 | 1012.7 |
| 20260905000325 | 25 | 129 | 0.0 | 0.0 | 0.00 | 0.53 | 0.53 | 85 | 1012.8 |
| 20260904235424 | 25 | 129 | 0.0 | 0.0 | 0.00 | 0.53 | 0.53 | 85 | 1012.8 |
| 20260904234523 | 26 | 129 | 0.0 | 0.0 | 0.00 | 0.53 | 0.53 | 84 | 1012.8 |
| 20260904233706 | 26 | 129 | 0.0 | 0.0 | 0.00 | 0.53 | 0.53 | 84 | 1013.1 |
| 20260904233623 | 26 | 129 | 0.0 | 0.0 | 0.00 | 0.53 | 0.53 | 84 | 1013.1 |
| 20260904232723 | 26 | 129 | 0.0 | 0.0 | 0.00 | 0.53 | 0.53 | 83 | 1013.1 |
| 20260904231823 | 26 | 129 | 0.0 | 1.6 | 0.00 | 0.53 | 0.53 | 83 | 1013.2 |
| 20260904230922 | 26 | 129 | 0.0 | 0.0 | 0.00 | 0.53 | 0.53 | 82 | 1013.3 |
| 20260904225200 | 27 | 129 | 0.0 | 0.0 | 0.00 | 0.53 | 0.53 | 81 | 1013.2 |
| 20260904225124 | 27 | 129 | 0.0 | 0.0 | 0.00 | 0.53 | 0.53 | 81 | 1013.2 |
| 20260904224223 | 27 | 129 | 0.0 | 1.6 | 0.00 | 0.53 | 0.53 | 80 | 1013.3 |
| 20260904222457 | 27 | 129 | 0.0 | 0.0 | 0.00 | 0.53 | 0.53 | 79 | 1013.3 |
| 20260904222422 | 27 | 129 | 0.0 | 0.0 | 0.00 | 0.53 | 0.53 | 79 | 1013.3 |
| 20260904221522 | 28 | 134 | 0.0 | 1.6 | 0.00 | 0.53 | 0.53 | 79 | 1013.4 |
| 20260904220624 | 28 | 154 | 0.0 | 1.6 | 0.00 | 0.53 | 0.53 | 77 | 1013.4 |
| 20260904215722 | 28 | 140 | 0.0 | 1.6 | 0.00 | 0.53 | 0.53 | 81 | 1013.3 |
| 20260904214823 | 27 | 129 | 0.0 | 1.6 | 0.00 | 0.53 | 0.53 | 82 | 1013.1 |
| 20260904213922 | 27 | 139 | 0.0 | 0.0 | 0.00 | 0.53 | 0.53 | 82 | 1013.0 |
| 20260904213023 | 26 | 121 | 1.6 | 4.8 | 0.00 | 0.53 | 0.53 | 84 | 1012.8 |
| 20260904211223 | 25 | 124 | 0.0 | 1.6 | 0.03 | 0.53 | 0.53 | 86 | 1013.3 |
| 20260904204522 | 26 | 156 | 0.0 | 0.0 | 0.13 | 0.53 | 0.53 | 89 | 1014.1 |
| 20260904203623 | 25 | 175 | 0.0 | 0.0 | 0.13 | 0.53 | 0.53 | 88 | 1013.9 |
| 20260904202723 | 25 | 78 | 0.0 | 0.0 | 0.13 | 0.53 | 0.53 | 86 | 1013.9 |
| 20260904201937 | 25 | 78 | 0.0 | 1.6 | 0.13 | 0.53 | 0.53 | 84 | 1014.0 |
| 20260904201824 | 25 | 78 | 0.0 | 1.6 | 0.13 | 0.53 | 0.53 | 84 | 1014.0 |
| 20260904200923 | 26 | 176 | 0.0 | 0.0 | 0.08 | 0.48 | 0.48 | 83 | 1014.3 |
| 20260904200023 | 27 | 171 | 1.6 | 1.6 | 0.00 | 0.41 | 0.41 | 82 | 1013.9 |
| 20260904195123 | 28 | 280 | 0.0 | 1.6 | 0.30 | 0.41 | 0.41 | 85 | 1013.6 |
| 20260904194222 | 28 | 41 | 0.0 | 0.0 | 0.41 | 0.41 | 0.41 | 88 | 1013.4 |
| 20260904193322 | 27 | 53 | 0.0 | 0.0 | 0.41 | 0.41 | 0.41 | 89 | 1013.4 |
| 20260904192424 | 27 | 53 | 0.0 | 0.0 | 0.41 | 0.41 | 0.41 | 89 | 1013.6 |
| 20260904191522 | 26 | 53 | 0.0 | 0.0 | 0.41 | 0.41 | 0.41 | 87 | 1013.6 |
| 20260904190622 | 26 | 53 | 0.0 | 1.6 | 0.41 | 0.41 | 0.41 | 85 | 1013.9 |
| 20260904185723 | 27 | 60 | 0.0 | 0.0 | 0.41 | 0.41 | 0.41 | 77 | 1013.9 |
| 20260904184823 | 32 | 326 | 4.8 | 4.8 | 0.00 | 0.00 | 0.00 | 66 | 1014.0 |
| 20260904183922 | 32 | 310 | 3.2 | 4.8 | 0.00 | 0.00 | 0.00 | 64 | 1013.9 |
| 20260904183023 | 32 | 312 | 1.6 | 3.2 | 0.00 | 0.00 | 0.00 | 68 | 1013.9 |
| 20260904182123 | 32 | 320 | 0.0 | 3.2 | 0.00 | 0.00 | 0.00 | 69 | 1014.1 |
| 20260904181223 | 32 | 311 | 3.2 | 4.8 | 0.00 | 0.00 | 0.00 | 63 | 1014.2 |
| 20260904180322 | 33 | 301 | 1.6 | 3.2 | 0.00 | 0.00 | 0.00 | 62 | 1014.4 |
| 20260904175422 | 33 | 314 | 4.8 | 4.8 | 0.00 | 0.00 | 0.00 | 62 | 1014.8 |
| 20260904174522 | 32 | 302 | 1.6 | 4.8 | 0.00 | 0.00 | 0.00 | 64 | 1014.9 |
| 20260904173623 | 33 | 305 | 3.2 | 4.8 | 0.00 | 0.00 | 0.00 | 63 | 1015.0 |
| 20260904172722 | 33 | 313 | 1.6 | 3.2 | 0.00 | 0.00 | 0.00 | 66 | 1015.0 |
| 20260904171037 | 32 | 309 | 1.6 | 4.8 | 0.00 | 0.00 | 0.00 | 67 | 1015.2 |
| 20260904170924 | 32 | 309 | 1.6 | 4.8 | 0.00 | 0.00 | 0.00 | 67 | 1015.2 |
| 20260904170022 | 32 | 315 | 1.6 | 3.2 | 0.00 | 0.00 | 0.00 | 67 | 1015.3 |
| 20260904165123 | 32 | 310 | 1.6 | 4.8 | 0.00 | 0.00 | 0.00 | 67 | 1015.4 |
| 20260904164222 | 32 | 312 | 1.6 | 4.8 | 0.00 | 0.00 | 0.00 | 69 | 1015.4 |
| 20260904163323 | 32 | 302 | 1.6 | 4.8 | 0.00 | 0.00 | 0.00 | 69 | 1015.4 |
| 20260904162422 | 32 | 315 | 3.2 | 3.2 | 0.00 | 0.00 | 0.00 | 67 | 1015.3 |
| 20260904161522 | 32 | 313 | 3.2 | 4.8 | 0.00 | 0.00 | 0.00 | 69 | 1015.4 |
| 20260904155723 | 31 | 307 | 0.0 | 1.6 | 0.00 | 0.00 | 0.00 | 72 | 1015.6 |
| 20260904154822 | 31 | 303 | 1.6 | 4.8 | 0.00 | 0.00 | 0.00 | 73 | 1015.5 |
| 20260904153922 | 31 | 308 | 1.6 | 4.8 | 0.00 | 0.00 | 0.00 | 72 | 1015.6 |
| 20260904153023 | 31 | 308 | 0.0 | 1.6 | 0.00 | 0.00 | 0.00 | 74 | 1015.4 |
| 20260904152123 | 30 | 274 | 1.6 | 3.2 | 0.00 | 0.00 | 0.00 | 75 | 1015.4 |
| 20260904151222 | 30 | 305 | 1.6 | 4.8 | 0.00 | 0.00 | 0.00 | 76 | 1015.3 |
| 20260904150323 | 29 | 315 | 0.0 | 1.6 | 0.00 | 0.00 | 0.00 | 78 | 1015.4 |
| 20260904144523 | 28 | 314 | 1.6 | 3.2 | 0.00 | 0.00 | 0.00 | 78 | 1015.3 |
| 20260904143622 | 28 | 305 | 3.2 | 4.8 | 0.00 | 0.00 | 0.00 | 79 | 1015.2 |
| 20260904142756 | 28 | 310 | 0.0 | 1.6 | 0.00 | 0.00 | 0.00 | 82 | 1015.2 |
| 20260904142722 | 28 | 310 | 0.0 | 1.6 | 0.00 | 0.00 | 0.00 | 82 | 1015.2 |
| 20260904141937 | 27 | 307 | 0.0 | 3.2 | 0.00 | 0.00 | 0.00 | 83 | 1015.1 |
| 20260904141854 | 27 | 307 | 0.0 | 3.2 | 0.00 | 0.00 | 0.00 | 83 | 1015.1 |
| 20260904141823 | 27 | 307 | 0.0 | 3.2 | 0.00 | 0.00 | 0.00 | 83 | 1015.1 |
| 20260904141104 | 27 | 295 | 0.0 | 0.0 | 0.00 | 0.00 | 0.00 | 84 | 1015.1 |
| 20260904140923 | 27 | 295 | 0.0 | 0.0 | 0.00 | 0.00 | 0.00 | 84 | 1015.1 |
| 20260904140056 | 26 | 258 | 0.0 | 0.0 | 0.00 | 0.00 | 0.00 | 85 | 1015.1 |
| 20260904140024 | 26 | 258 | 0.0 | 0.0 | 0.00 | 0.00 | 0.00 | 85 | 1015.1 |
| 20260904135249 | 26 | 185 | 0.0 | 0.0 | 0.00 | 0.00 | 0.00 | 86 | 1015.1 |
| 20260904135213 | 26 | 185 | 0.0 | 0.0 | 0.00 | 0.00 | 0.00 | 86 | 1015.1 |
| 20260904135123 | 26 | 185 | 0.0 | 0.0 | 0.00 | 0.00 | 0.00 | 86 | 1015.1 |
| 20260904134259 | 25 | 164 | 0.0 | 0.0 | 0.00 | 0.00 | 0.00 | 86 | 1015.2 |
| 20260904134223 | 25 | 164 | 0.0 | 0.0 | 0.00 | 0.00 | 0.00 | 86 | 1015.2 |
| 20260904133322 | 25 | 176 | 0.0 | 0.0 | 0.00 | 0.00 | 0.00 | 87 | 1015.2 |
| 20260904132609 | 25 | 162 | 0.0 | 0.0 | 0.00 | 0.00 | 0.00 | 88 | 1015.3 |
| 20260904132422 | 25 | 162 | 0.0 | 0.0 | 0.00 | 0.00 | 0.00 | 88 | 1015.3 |
| 20260904130653 | 24 | 193 | 0.0 | 0.0 | 0.00 | 0.00 | 0.00 | 88 | 1015.3 |
| 20260904130622 | 24 | 193 | 0.0 | 0.0 | 0.00 | 0.00 | 0.00 | 88 | 1015.3 |
| 20260904130035 | 23 | 192 | 0.0 | 0.0 | 0.00 | 0.00 | 0.00 | 89 | 1015.5 |
| 20260904125826 | 23 | 192 | 0.0 | 0.0 | 0.00 | 0.00 | 0.00 | 89 | 1015.5 |
| 20260904125755 | 23 | 192 | 0.0 | 0.0 | 0.00 | 0.00 | 0.00 | 89 | 1015.5 |
| 20260904125722 | 23 | 192 | 0.0 | 0.0 | 0.00 | 0.00 | 0.00 | 89 | 1015.5 |
| 20260904124822 | 23 | 192 | 0.0 | 0.0 | 0.00 | 0.00 | 0.00 | 89 | 1015.4 |
| 20260904124011 | 23 | 187 | 0.0 | 0.0 | 0.00 | 0.00 | 0.00 | 89 | 1015.2 |
| 20260904123923 | 23 | 187 | 0.0 | 0.0 | 0.00 | 0.00 | 0.00 | 89 | 1015.2 |
| 20260904123023 | 23 | 172 | 0.0 | 0.0 | 0.00 | 0.00 | 0.00 | 89 | 1015.2 |
| 20260904122202 | 22 | 172 | 0.0 | 0.0 | 0.00 | 0.00 | 0.00 | 89 | 1015.1 |
| 20260904122124 | 22 | 172 | 0.0 | 0.0 | 0.00 | 0.00 | 0.00 | 89 | 1015.1 |
| 20260904121255 | 22 | 172 | 0.0 | 0.0 | 0.00 | 0.00 | 0.00 | 90 | 1015.1 |
| 20260904121222 | 22 | 172 | 0.0 | 0.0 | 0.00 | 0.00 | 0.00 | 90 | 1015.1 |
| 20260904120324 | 22 | 172 | 0.0 | 0.0 | 0.00 | 0.00 | 0.00 | 90 | 1015.0 |
| 20260904115454 | 22 | 172 | 0.0 | 0.0 | 0.00 | 0.00 | 0.00 | 90 | 1014.8 |
| 20260904115422 | 22 | 172 | 0.0 | 0.0 | 0.00 | 0.00 | 0.00 | 90 | 1014.8 |
| 20260904114746 | 22 | 172 | 0.0 | 0.0 | 0.00 | 0.00 | 0.00 | 90 | 1014.6 |
| 20260904114526 | 22 | 172 | 0.0 | 0.0 | 0.00 | 0.00 | 0.00 | 90 | 1014.6 |
| 20260904113700 | 22 | 172 | 0.0 | 0.0 | 0.00 | 0.00 | 0.00 | 90 | 1014.6 |
| 20260904113622 | 22 | 172 | 0.0 | 0.0 | 0.00 | 0.00 | 0.00 | 90 | 1014.6 |
| 20260904112815 | 22 | 172 | 0.0 | 0.0 | 0.00 | 0.00 | 0.00 | 90 | 1014.4 |
| 20260904112723 | 22 | 172 | 0.0 | 0.0 | 0.00 | 0.00 | 0.00 | 90 | 1014.4 |
| 20260904111822 | 22 | 172 | 0.0 | 0.0 | 0.00 | 0.00 | 0.00 | 90 | 1014.3 |
| 20260904111020 | 22 | 172 | 0.0 | 0.0 | 0.00 | 0.00 | 0.00 | 90 | 1014.2 |
| 20260904110922 | 22 | 172 | 0.0 | 0.0 | 0.00 | 0.00 | 0.00 | 90 | 1014.2 |
| 20260904110159 | 22 | 172 | 0.0 | 0.0 | 0.00 | 0.00 | 0.00 | 90 | 1014.1 |
| 20260904110029 | 22 | 172 | 0.0 | 0.0 | 0.00 | 0.00 | 0.00 | 90 | 1014.1 |
| 20260904105200 | 22 | 172 | 0.0 | 0.0 | 0.00 | 0.00 | 0.00 | 90 | 1014.1 |
| 20260904105124 | 22 | 172 | 0.0 | 0.0 | 0.00 | 0.00 | 0.00 | 90 | 1014.1 |
| 20260904104223 | 22 | 172 | 0.0 | 0.0 | 0.00 | 0.00 | 0.00 | 90 | 1013.9 |
| 20260904103402 | 22 | 172 | 0.0 | 0.0 | 0.00 | 0.00 | 0.00 | 90 | 1013.8 |
| 20260904103322 | 22 | 172 | 0.0 | 0.0 | 0.00 | 0.00 | 0.00 | 90 | 1013.8 |
| 20260904102515 | 22 | 172 | 0.0 | 0.0 | 0.00 | 0.00 | 0.00 | 90 | 1013.8 |
| 20260904102421 | 22 | 172 | 0.0 | 0.0 | 0.00 | 0.00 | 0.00 | 90 | 1013.8 |
| 20260904100658 | 22 | 171 | 0.0 | 0.0 | 0.00 | 0.00 | 0.00 | 90 | 1013.9 |
| 20260904095805 | 22 | 171 | 0.0 | 0.0 | 0.00 | 0.00 | 0.00 | 90 | 1013.9 |
| 20260904095723 | 22 | 171 | 0.0 | 0.0 | 0.00 | 0.00 | 0.00 | 90 | 1013.9 |
| 20260904094856 | 23 | 171 | 0.0 | 0.0 | 0.00 | 0.00 | 0.00 | 90 | 1013.9 |
| 20260904094823 | 23 | 171 | 0.0 | 0.0 | 0.00 | 0.00 | 0.00 | 90 | 1013.9 |
| 20260904093953 | 23 | 171 | 0.0 | 0.0 | 0.00 | 0.00 | 0.00 | 90 | 1013.8 |
| 20260904093921 | 23 | 171 | 0.0 | 0.0 | 0.00 | 0.00 | 0.00 | 90 | 1013.8 |
| 20260904093119 | 22 | 171 | 0.0 | 0.0 | 0.00 | 0.00 | 0.00 | 90 | 1013.9 |
| 20260904093022 | 22 | 171 | 0.0 | 0.0 | 0.00 | 0.00 | 0.00 | 90 | 1013.9 |
| 20260904092504 | 22 | 171 | 0.0 | 0.0 | 0.00 | 0.00 | 0.00 | 90 | 1013.8 |
| 20260904092246 | 22 | 171 | 0.0 | 0.0 | 0.00 | 0.00 | 0.00 | 90 | 1013.8 |
| 20260904092153 | 22 | 171 | 0.0 | 0.0 | 0.00 | 0.00 | 0.00 | 90 | 1013.8 |
| 20260904092122 | 22 | 171 | 0.0 | 0.0 | 0.00 | 0.00 | 0.00 | 90 | 1013.8 |
| 20260904091221 | 23 | 171 | 0.0 | 0.0 | 0.00 | 0.00 | 0.00 | 91 | 1013.9 |
| 20260904090509 | 23 | 171 | 0.0 | 0.0 | 0.00 | 0.00 | 0.00 | 91 | 1013.9 |
| 20260904090352 | 23 | 171 | 0.0 | 0.0 | 0.00 | 0.00 | 0.00 | 91 | 1013.9 |
| 20260904090321 | 23 | 171 | 0.0 | 0.0 | 0.00 | 0.00 | 0.00 | 91 | 1013.9 |
| 20260904085422 | 22 | 171 | 0.0 | 0.0 | 0.00 | 0.00 | 0.00 | 91 | 1013.8 |
| 20260904084524 | 22 | 171 | 0.0 | 0.0 | 0.00 | 0.00 | 0.00 | 91 | 1013.8 |
| 20260904083623 | 22 | 337 | 0.0 | 0.0 | 0.00 | 0.00 | 0.00 | 91 | 1013.8 |
| 20260904082722 | 22 | 337 | 0.0 | 0.0 | 0.00 | 0.00 | 0.00 | 91 | 1013.9 |
| 20260904081822 | 22 | 337 | 0.0 | 0.0 | 0.00 | 0.00 | 0.00 | 91 | 1013.8 |
| 20260904080923 | 22 | 337 | 0.0 | 0.0 | 0.00 | 0.00 | 0.00 | 91 | 1014.0 |
| 20260904080058 | 22 | 337 | 0.0 | 0.0 | 0.00 | 0.00 | 0.00 | 91 | 1014.0 |
| 20260904080022 | 22 | 337 | 0.0 | 0.0 | 0.00 | 0.00 | 0.00 | 91 | 1014.0 |
| 20260904075122 | 22 | 337 | 0.0 | 0.0 | 0.00 | 0.00 | 0.00 | 91 | 1014.1 |
| 20260904074255 | 22 | 337 | 0.0 | 0.0 | 0.00 | 0.00 | 0.00 | 91 | 1014.1 |
| 20260904074222 | 22 | 337 | 0.0 | 0.0 | 0.00 | 0.00 | 0.00 | 91 | 1014.1 |
| 20260904073322 | 22 | 337 | 0.0 | 0.0 | 0.00 | 0.00 | 0.00 | 90 | 1014.2 |
| 20260904072453 | 22 | 337 | 0.0 | 0.0 | 0.00 | 0.00 | 0.00 | 90 | 1014.3 |
| 20260904072422 | 22 | 337 | 0.0 | 0.0 | 0.00 | 0.00 | 0.00 | 90 | 1014.3 |
| 20260904071558 | 22 | 337 | 0.0 | 0.0 | 0.00 | 0.00 | 0.00 | 90 | 1014.5 |
| 20260904071523 | 22 | 337 | 0.0 | 0.0 | 0.00 | 0.00 | 0.00 | 90 | 1014.5 |
| 20260904070622 | 22 | 337 | 0.0 | 0.0 | 0.00 | 0.00 | 0.00 | 90 | 1014.6 |
| 20260904065723 | 22 | 337 | 0.0 | 0.0 | 0.00 | 0.00 | 0.00 | 90 | 1014.7 |
| 20260904064822 | 22 | 337 | 0.0 | 0.0 | 0.00 | 0.00 | 0.00 | 90 | 1014.6 |
| 20260904063922 | 22 | 337 | 0.0 | 0.0 | 0.00 | 0.00 | 0.00 | 90 | 1014.7 |
| 20260904063021 | 22 | 337 | 0.0 | 0.0 | 0.00 | 0.00 | 0.00 | 89 | 1014.8 |
| 20260904062122 | 22 | 337 | 0.0 | 0.0 | 0.00 | 0.00 | 0.00 | 89 | 1014.7 |
| 20260904061257 | 22 | 337 | 0.0 | 0.0 | 0.00 | 0.00 | 0.00 | 89 | 1014.8 |
| 20260904061221 | 22 | 337 | 0.0 | 0.0 | 0.00 | 0.00 | 0.00 | 89 | 1014.8 |
| 20260904060522 | 23 | 337 | 0.0 | 0.0 | 0.00 | 0.00 | 0.00 | 89 | 1014.8 |
| 20260904060405 | 23 | 337 | 0.0 | 0.0 | 0.00 | 0.00 | 0.00 | 90 | 1014.9 |
| 20260904060321 | 23 | 337 | 0.0 | 0.0 | 0.00 | 0.00 | 0.00 | 89 | 1014.8 |
| 20260904060308 | 23 | 337 | 0.0 | 0.0 | 0.00 | 0.00 | 0.00 | 90 | 1014.9 |
| 20260904055425 | 23 | 337 | 0.0 | 0.0 | 0.00 | 0.00 | 0.00 | 90 | 1014.9 |
| 20260904054522 | 23 | 337 | 0.0 | 0.0 | 0.00 | 0.00 | 0.00 | 89 | 1014.9 |
| 20260904053621 | 23 | 337 | 0.0 | 0.0 | 0.00 | 0.00 | 0.00 | 89 | 1015.0 |
| 20260904052723 | 23 | 337 | 0.0 | 0.0 | 0.00 | 0.00 | 0.00 | 89 | 1015.0 |
| 20260904051821 | 23 | 337 | 0.0 | 0.0 | 0.00 | 0.00 | 0.00 | 89 | 1014.9 |
| 20260904050921 | 23 | 337 | 0.0 | 0.0 | 0.00 | 0.00 | 0.00 | 89 | 1014.9 |
| 20260904050100 | 23 | 337 | 0.0 | 0.0 | 0.00 | 0.00 | 0.00 | 88 | 1014.9 |
| 20260904050022 | 23 | 337 | 0.0 | 0.0 | 0.00 | 0.00 | 0.00 | 88 | 1014.9 |
| 20260904045123 | 23 | 337 | 0.0 | 0.0 | 0.00 | 0.00 | 0.00 | 88 | 1014.8 |
| 20260904044222 | 23 | 337 | 0.0 | 0.0 | 0.00 | 0.00 | 0.00 | 88 | 1014.8 |
| 20260904043322 | 23 | 337 | 0.0 | 0.0 | 0.00 | 0.00 | 0.00 | 88 | 1014.7 |
| 20260904042422 | 23 | 337 | 0.0 | 0.0 | 0.00 | 0.00 | 0.00 | 88 | 1014.6 |
| 20260904041522 | 23 | 337 | 0.0 | 0.0 | 0.00 | 0.00 | 0.00 | 88 | 1014.6 |
| 20260904040622 | 23 | 337 | 0.0 | 0.0 | 0.00 | 0.00 | 0.00 | 88 | 1014.6 |
| 20260904035722 | 23 | 337 | 0.0 | 0.0 | 0.00 | 0.00 | 0.00 | 88 | 1014.5 |
| 20260904034821 | 23 | 337 | 0.0 | 0.0 | 0.00 | 0.00 | 0.00 | 88 | 1014.6 |
| 20260904033921 | 23 | 337 | 0.0 | 0.0 | 0.00 | 0.00 | 0.00 | 87 | 1014.6 |
| 20260904033022 | 24 | 337 | 0.0 | 0.0 | 0.00 | 0.00 | 0.00 | 87 | 1014.6 |
| 20260904032122 | 25 | 337 | 0.0 | 0.0 | 0.00 | 0.00 | 0.00 | 86 | 1014.6 |
| 20260904031222 | 25 | 337 | 0.0 | 0.0 | 0.00 | 0.00 | 0.00 | 86 | 1014.8 |
| 20260904030322 | 25 | 337 | 0.0 | 0.0 | 0.00 | 0.00 | 0.00 | 86 | 1014.7 |
| 20260904025423 | 25 | 337 | 0.0 | 0.0 | 0.00 | 0.00 | 0.00 | 86 | 1014.9 |
| 20260904024522 | 25 | 337 | 0.0 | 0.0 | 0.00 | 0.00 | 0.00 | 85 | 1014.8 |
| 20260904023624 | 26 | 337 | 0.0 | 0.0 | 0.00 | 0.00 | 0.00 | 85 | 1014.9 |
| 20260904022721 | 26 | 337 | 0.0 | 0.0 | 0.00 | 0.00 | 0.00 | 84 | 1014.9 |
| 20260904021821 | 26 | 337 | 0.0 | 0.0 | 0.00 | 0.00 | 0.00 | 84 | 1014.9 |
| 20260904020921 | 27 | 125 | 0.0 | 0.0 | 0.00 | 0.00 | 0.00 | 83 | 1014.9 |
| 20260904020022 | 27 | 125 | 0.0 | 0.0 | 0.00 | 0.00 | 0.00 | 80 | 1014.7 |
| 20260904015122 | 27 | 125 | 0.0 | 0.0 | 0.00 | 0.00 | 0.00 | 79 | 1014.6 |
| 20260904014222 | 27 | 132 | 0.0 | 3.2 | 0.00 | 0.00 | 0.00 | 79 | 1014.6 |
| 20260904013322 | 27 | 137 | 0.0 | 0.0 | 0.00 | 0.00 | 0.00 | 79 | 1014.3 |
| 20260904012422 | 27 | 137 | 0.0 | 0.0 | 0.00 | 0.00 | 0.00 | 79 | 1014.1 |
| 20260904011522 | 27 | 138 | 0.0 | 1.6 | 0.00 | 0.00 | 0.00 | 79 | 1014.1 |